Wind_Speed
27 23 20 16 14 12 11 8 8 10 10 11 11 10 7 6 6 6 6 3 4 2 2 2 3 5 8 10 13 15 16 15 14 14 12 12 13 14 15 17 20 22 24 24 24 23 23 22 22
29 25 21 18 15 15 12 10 11 11 12 13 13 11 8 8 6 6 6 4 5 7 2 4 6 7 8 10 14 16 17 15 14 14 15 14 16 18 20 23 25 27 29 27 23 19 17 17 19
31 26 23 19 16 16 14 13 13 13 15 15 14 12 10 9 7 5 6 7 7 8 7 6 8 7 8 11 13 15 16 14 13 15 16 17 19 23 24 27 29 30 31 26 17 15 14 14 13
32 28 24 19 17 17 15 16 15 14 15 16 14 13 10 10 8 5 7 9 9 9 9 7 7 7 9 11 13 15 15 15 14 17 18 20 24 26 27 30 32 33 29 23 14 14 14 13 11
33 30 26 22 20 19 19 19 16 16 17 15 14 14 12 11 8 7 8 11 11 10 9 8 7 8 11 12 13 13 13 14 16 18 21 25 27 29 29 30 30 32 26 17 12 14 12 10 10
34 31 28 24 22 20 20 21 19 17 17 15 15 15 12 11 9 8 8 12 13 13 11 10 10 10 11 12 13 13 14 15 16 19 22 25 27 28 27 26 26 25 16 10 11 10 10 11 11
35 34 30 27 24 21 21 22 21 19 18 15 15 14 12 11 10 8 8 11 13 14 14 13 12 12 12 13 14 15 16 16 18 19 22 25 27 28 24 18 13 8 8 8 8 9 11 13 14
38 36 33 28 23 22 23 24 21 19 18 16 15 13 12 11 11 9 9 11 14 16 18 16 14 14 15 15 16 17 18 19 19 20 22 24 26 27 19 13 13 13 12 10 11 13 16 18 19
41 38 32 27 23 22 23 24 20 18 19 16 14 13 12 13 13 12 13 14 15 17 19 19 18 17 19 18 18 19 21 22 22 22 23 23 23 24 19 18 17 15 14 14 16 19 22 24 22
39 34 29 26 25 23 24 22 19 20 19 17 13 12 14 15 14 15 15 16 17 18 20 21 20 21 22 21 21 21 23 24 25 25 24 25 24 24 21 21 22 19 16 17 18 20 23 27 26
36 26 23 25 23 24 23 20 21 21 19 17 13 13 14 15 16 16 17 17 17 18 22 23 23 24 25 25 25 25 26 27 27 29 29 29 28 26 25 25 25 26 24 22 22 23 24 25 26
26 21 20 22 23 24 23 21 22 20 18 16 14 14 16 16 17 17 17 18 19 20 22 24 26 27 28 30 31 31 31 30 29 30 31 33 33 31 29 28 29 28 29 28 27 27 29 29 27
23 25 22 21 23 23 23 23 21 18 16 16 15 16 17 18 17 17 17 18 20 21 23 25 27 29 31 32 32 33 32 32 31 32 33 33 35 31 30 30 29 28 28 29 29 29 28 28 28
32 29 26 23 24 24 25 24 21 19 18 17 17 18 18 19 19 19 19 20 21 22 24 26 28 30 30 31 32 33 32 32 33 33 34 34 36 31 28 28 28 27 27 29 30 30 30 29 29
38 30 28 26 26 26 27 25 22 20 20 19 19 20 20 21 21 21 22 22 23 24 26 27 29 30 30 32 33 32 33 34 34 35 33 33 33 28 27 28 29 29 28 29 31 32 32 31 31
35 32 30 27 28 28 28 25 23 22 21 20 20 22 22 23 24 24 23 24 25 26 27 28 30 30 32 32 33 34 35 36 36 35 33 30 29 28 27 28 30 31 31 31 31 32 32 31 31
33 32 30 31 30 30 28 25 24 23 22 21 22 23 25 26 26 25 25 26 27 27 28 29 30 31 33 34 35 36 37 37 37 35 32 28 27 27 28 29 30 31 31 31 31 31 31 31 32
31 30 31 32 31 30 28 26 25 24 23 23 25 26 27 29 29 28 28 28 28 28 30 30 31 32 34 36 37 38 38 38 36 33 29 28 28 28 29 30 31 32 32 33 34 34 35 35 36
32 32 33 33 31 30 29 27 26 24 25 26 28 28 30 31 31 31 31 30 30 30 31 32 33 35 37 39 39 39 37 36 34 31 29 29 30 30 31 32 34 35 36 37 39 41 42 42 42
31 32 33 31 30 30 29 29 27 26 28 30 31 31 33 33 34 33 33 33 33 34 35 36 38 39 41 40 39 37 36 33 32 31 30 32 33 35 37 39 40 42 44 44 44 45 47 47 44
33 32 32 31 31 31 30 29 29 29 31 33 33 34 34 36 35 35 35 35 36 37 38 40 42 42 42 40 37 34 33 33 32 33 35 37 39 41 43 45 47 48 48 49 51 52 51 50 50
34 33 33 32 33 32 32 33 31 32 33 34 34 35 36 36 36 37 37 38 40 41 42 43 43 42 40 36 33 33 34 34 36 38 40 43 45 47 48 49 50 53 55 56 56 56 56 56 55
35 35 35 35 36 37 36 38 34 34 34 35 36 37 37 37 38 39 40 41 43 44 44 44 41 38 35 33 35 36 38 40 41 43 45 48 49 50 51 55 57 58 60 60 60 59 59 59 58
36 35 35 37 39 41 37 38 38 35 35 34 36 38 39 40 41 43 44 45 45 44 43 39 35 34 36 38 40 42 44 45 47 48 49 50 53 56 57 60 62 63 65 66 66 66 65 64 62
36 34 35 38 40 40 36 38 39 38 35 36 38 40 41 42 45 46 46 44 42 39 36 35 36 39 41 44 46 47 49 50 50 52 54 57 59 61 63 65 67 69 71 71 71 69 68 68 68
32 34 35 37 38 38 38 41 39 37 37 38 38 38 37 37 38 38 38 37 36 36 37 39 42 44 47 49 50 52 53 54 55 58 61 63 65 67 69 70 72 73 73 73 72 72 73 74 75
34 36 34 36 39 41 41 40 38 36 36 35 34 34 37 37 36 34 34 36 38 41 44 46 48 50 52 54 56 57 57 59 61 64 66 68 71 73 74 75 76 75 76 77 78 78 79 81 83
35 33 35 37 39 40 41 40 39 37 37 36 36 38 40 39 39 39 40 42 44 47 50 51 53 55 57 58 59 60 62 64 67 69 71 73 75 76 78 79 80 82 83 86 86 87 89 91 92
34 35 35 37 40 41 42 41 41 41 40 39 39 41 42 42 43 45 47 49 50 52 53 55 56 58 58 60 62 65 67 69 72 74 75 76 76 77 78 80 82 84 87 89 92 94 96 98 99
38 38 38 39 39 41 44 45 46 44 41 42 44 45 45 45 46 47 49 51 52 53 55 56 58 60 62 64 67 68 71 74 75 75 76 77 78 81 83 86 89 91 94 98 101 103 104 105 105
Wind_Direction
210 214 214 213 212 215 223 236 240 257 263 272 276 277 279 302 337 321 315 247 216 204 69 21 341 340 352 350 348 344 341 337 336 339 338 338 338 335 330 326 323 319 317 313 308 300 292 293 292
212 213 216 213 215 222 222 231 242 256 271 276 275 275 278 310 323 313 303 265 214 216 255 336 322 330 338 333 336 337 337 331 335 339 335 330 327 324 320 317 315 314 312 308 305 298 298 298 293
212 213 216 213 218 227 228 228 246 259 268 272 268 270 278 305 307 304 278 248 239 238 252 291 314 327 332 328 330 333 343 342 332 332 332 325 319 318 312 312 310 308 307 302 295 294 295 294 300
210 214 213 210 214 227 225 232 248 260 264 265 261 263 274 297 299 292 267 251 242 240 248 271 299 315 317 322 324 339 348 349 342 337 331 323 317 314 307 304 304 303 302 290 283 285 285 290 296
208 211 211 210 218 229 231 235 245 257 256 254 253 261 275 292 288 279 270 250 250 240 247 268 285 299 308 319 328 339 340 342 342 336 329 327 323 316 306 301 301 301 299 275 275 287 289 299 310
207 210 210 210 223 235 238 237 242 252 250 244 244 258 278 285 279 277 274 245 242 238 244 259 274 287 302 314 326 328 335 341 341 338 335 333 334 330 315 303 303 306 296 257 277 286 293 295 296
204 210 212 217 231 241 240 237 241 250 246 235 241 260 278 278 277 281 281 259 249 247 253 260 269 282 294 304 315 321 326 330 336 337 337 338 338 341 333 319 326 325 294 281 271 286 295 300 305
204 212 216 225 235 242 238 236 240 243 235 226 240 262 273 281 281 282 284 275 252 248 253 260 269 278 287 296 308 317 321 323 328 334 336 338 340 341 343 334 333 323 307 304 306 302 304 306 304
203 212 219 227 236 240 235 235 235 229 223 229 242 262 277 278 281 284 286 281 265 253 253 259 266 275 283 291 303 314 318 320 322 326 329 334 332 330 330 324 321 322 307 303 304 306 310 310 308
199 209 219 230 239 237 234 234 225 215 221 236 244 256 271 280 284 285 290 292 279 261 255 258 264 272 280 288 298 307 310 315 319 322 324 328 327 322 316 311 311 308 298 290 289 293 300 302 304
196 205 219 230 235 232 237 229 215 211 223 236 246 261 271 280 284 287 292 293 287 270 260 263 266 272 279 286 291 297 305 309 312 316 320 323 323 320 314 304 299 299 297 290 289 297 299 297 294
188 203 221 229 227 237 237 224 211 215 226 233 249 263 274 282 283 285 291 294 289 277 269 267 269 273 278 286 291 295 299 303 307 309 313 317 318 316 313 305 298 296 292 292 294 303 305 305 302
212 218 227 233 228 237 231 216 214 224 231 238 252 266 278 281 281 282 289 294 290 280 275 274 274 276 281 285 288 291 295 299 302 305 307 311 313 313 311 306 301 297 294 292 292 297 299 300 299
229 231 231 233 232 230 220 215 220 227 233 242 256 269 278 281 281 285 289 291 290 286 283 280 279 279 280 283 285 288 291 294 295 296 300 306 306 305 304 299 295 295 294 293 292 292 294 294 294
230 231 230 229 232 221 216 217 225 228 236 246 260 272 279 284 284 285 288 290 289 288 287 285 282 282 283 285 286 288 290 292 294 296 298 301 301 301 298 297 298 297 297 297 297 299 301 302 298
226 227 229 227 226 216 217 221 227 232 239 250 263 272 282 284 284 285 287 287 287 287 286 286 286 287 287 287 289 291 294 295 297 298 299 298 297 295 294 295 297 298 300 300 299 299 300 301 301
220 221 220 223 218 215 222 225 229 235 244 253 263 273 280 282 284 285 286 286 286 286 287 287 287 288 290 292 292 294 294 296 297 297 297 295 292 291 293 295 295 297 299 300 301 301 301 303 303
210 213 218 216 215 218 224 227 232 238 247 256 265 273 278 282 283 284 284 284 284 285 284 285 287 289 291 291 291 292 293 294 295 293 290 289 290 292 294 296 298 300 300 300 299 298 296 295 296
210 212 213 213 215 221 225 230 233 240 250 259 267 273 278 281 282 283 283 282 282 281 282 285 287 288 288 289 290 291 292 293 291 288 289 290 290 291 295 296 298 298 297 297 296 294 293 292 292
210 211 211 214 219 225 229 234 235 243 254 262 269 275 279 282 281 283 282 281 281 283 285 287 288 289 289 289 289 290 290 288 285 286 289 290 292 295 297 297 297 297 296 296 296 295 294 292 289
216 212 214 218 225 230 232 236 243 249 257 265 272 276 278 279 281 280 280 281 282 283 284 286 288 288 286 284 285 287 285 284 288 291 292 291 291 292 293 295 295 295 296 297 297 295 293 291 289
216 215 217 222 229 233 237 241 249 256 261 267 272 274 276 277 277 278 279 280 281 283 285 287 285 283 282 283 284 284 285 287 289 288 288 288 291 293 293 294 296 297 297 296 295 294 292 291 289
217 218 221 227 233 236 241 249 248 257 265 268 271 273 275 276 277 278 278 279 281 283 285 283 282 280 280 281 281 282 284 284 284 288 291 291 292 295 296 296 296 296 296 295 293 292 291 289 287
221 224 229 233 238 239 245 252 253 259 266 270 271 273 276 277 278 279 280 281 282 282 281 278 276 277 277 280 282 284 285 288 290 290 289 290 292 294 294 294 295 296 296 296 295 293 292 289 287
228 231 237 240 243 246 252 255 261 267 270 273 275 276 278 280 280 281 281 281 281 279 274 272 272 275 278 281 282 285 288 289 288 288 289 291 292 291 293 295 296 297 296 295 293 291 289 287 285
234 237 242 247 251 255 259 259 265 272 275 276 278 281 282 283 283 282 281 277 273 270 270 272 274 276 279 283 284 285 286 287 287 289 291 292 292 293 295 296 296 295 294 293 291 290 289 287 286
237 241 247 252 255 258 261 264 268 273 278 280 281 283 284 283 281 278 274 270 269 270 271 274 278 281 283 283 285 286 287 289 290 292 293 293 295 296 296 296 295 295 294 292 291 289 288 286 285
241 244 247 252 258 261 265 269 275 278 278 278 280 280 279 278 276 273 271 270 271 272 275 279 282 283 284 285 286 288 290 291 292 293 294 295 296 296 296 296 295 295 294 292 290 288 286 285 284
244 247 251 255 259 266 271 274 276 276 277 279 278 276 275 275 274 273 273 274 275 277 279 281 282 283 284 286 288 290 292 293 293 294 295 295 294 293 292 291 290 288 287 286 286 286 285 285 284
244 247 252 259 266 268 269 271 274 277 280 278 276 276 277 277 277 277 277 277 277 278 280 282 284 286 288 289 291 293 293 293 293 293 293 292 292 292 292 291 292 292 293 293 292 290 289 287 285
Height
5862 5864 5867 5870 5874 5874 5875 5877 5877 5877 5879 5879 5880 5881 5882 5881 5881 5882 5880 5880 5881 5881 5881 5881 5881 5881 5881 5880 5880 5878 5876 5875 5873 5872 5871 5869 5868 5867 5866 5864 5863 5861 5860 5859 5857 5856 5855 5855 5855
5858 5861 5865 5867 5871 5872 5874 5875 5876 5876 5876 5877 5878 5879 5880 5880 5880 5879 5879 5879 5880 5881 5880 5881 5881 5881 5881 5880 5879 5877 5875 5873 5872 5871 5870 5869 5867 5866 5864 5862 5859 5857 5855 5854 5852 5851 5851 5851 5850
5854 5858 5862 5864 5867 5869 5872 5873 5873 5874 5874 5875 5876 5877 5878 5879 5878 5878 5877 5878 5878 5879 5880 5880 5880 5880 5880 5879 5878 5876 5874 5872 5871 5870 5869 5867 5865 5863 5861 5858 5856 5853 5851 5849 5849 5848 5848 5847 5847
5850 5855 5859 5862 5865 5866 5869 5871 5871 5872 5872 5872 5874 5875 5877 5877 5877 5877 5876 5876 5877 5878 5878 5879 5879 5878 5878 5877 5876 5875 5873 5871 5870 5868 5867 5865 5863 5860 5857 5854 5851 5848 5846 5845 5845 5845 5845 5845 5844
5845 5850 5855 5859 5862 5864 5866 5867 5869 5869 5870 5870 5872 5873 5875 5875 5875 5875 5875 5875 5875 5876 5877 5877 5877 5877 5876 5876 5875 5873 5872 5870 5868 5866 5864 5862 5858 5855 5851 5848 5845 5842 5840 5840 5841 5842 5842 5843 5843
5841 5846 5852 5855 5858 5860 5863 5864 5865 5866 5867 5868 5870 5871 5872 5872 5873 5874 5873 5874 5874 5874 5875 5875 5875 5875 5874 5874 5872 5871 5870 5868 5866 5864 5861 5858 5855 5850 5846 5842 5840 5837 5837 5838 5839 5840 5840 5840 5840
5836 5841 5847 5851 5854 5857 5859 5860 5862 5863 5864 5865 5867 5868 5870 5870 5870 5871 5871 5872 5872 5872 5872 5872 5873 5872 5872 5871 5870 5868 5867 5865 5863 5861 5859 5856 5852 5848 5843 5839 5837 5835 5836 5837 5837 5838 5838 5837 5837
5831 5836 5842 5847 5850 5853 5855 5856 5857 5859 5861 5863 5864 5866 5867 5867 5867 5868 5868 5869 5870 5870 5870 5870 5870 5869 5868 5867 5866 5865 5864 5862 5860 5858 5856 5853 5850 5846 5842 5840 5838 5836 5836 5835 5836 5836 5835 5835 5834
5825 5832 5839 5843 5846 5848 5850 5851 5853 5855 5858 5860 5862 5863 5864 5864 5864 5865 5865 5866 5866 5866 5866 5866 5866 5865 5864 5863 5863 5861 5860 5859 5857 5854 5852 5850 5848 5845 5842 5840 5837 5835 5835 5834 5833 5833 5832 5831 5830
5820 5829 5835 5839 5842 5844 5846 5848 5849 5852 5854 5857 5859 5860 5860 5861 5861 5861 5861 5861 5861 5862 5862 5862 5862 5861 5860 5859 5859 5858 5856 5855 5854 5851 5849 5847 5845 5843 5840 5837 5835 5833 5831 5830 5829 5828 5827 5826 5825
5816 5825 5830 5835 5838 5840 5842 5844 5846 5849 5851 5853 5856 5857 5857 5858 5858 5858 5858 5857 5857 5857 5857 5857 5857 5856 5856 5855 5854 5853 5852 5851 5849 5847 5845 5843 5840 5838 5836 5834 5832 5830 5828 5825 5823 5822 5821 5819 5819
5812 5820 5826 5830 5834 5836 5838 5840 5843 5846 5849 5850 5852 5853 5854 5854 5854 5854 5854 5853 5852 5852 5853 5853 5852 5851 5851 5850 5849 5847 5846 5845 5843 5842 5840 5837 5835 5833 5831 5829 5827 5825 5823 5821 5819 5818 5816 5815 5813
5809 5817 5823 5826 5830 5832 5835 5837 5840 5842 5845 5846 5848 5849 5850 5850 5850 5850 5850 5849 5849 5848 5848 5848 5847 5847 5846 5845 5843 5841 5840 5839 5837 5836 5834 5831 5828 5827 5825 5823 5821 5819 5817 5815 5813 5812 5810 5809 5807
5807 5814 5819 5823 5826 5829 5831 5834 5837 5839 5841 5843 5844 5845 5845 5845 5845 5846 5845 5845 5844 5843 5843 5842 5842 5841 5839 5838 5837 5836 5834 5833 5831 5829 5827 5824 5822 5820 5818 5816 5814 5812 5811 5809 5807 5805 5803 5802 5800
5804 5811 5815 5820 5822 5825 5828 5831 5833 5835 5837 5839 5840 5841 5841 5840 5840 5840 5840 5840 5839 5838 5838 5837 5836 5835 5833 5832 5831 5829 5827 5825 5823 5821 5819 5817 5816 5814 5812 5810 5808 5806 5804 5803 5801 5799 5797 5795 5793
5801 5807 5812 5816 5818 5821 5824 5828 5829 5832 5834 5836 5836 5836 5836 5836 5835 5835 5835 5834 5833 5833 5832 5830 5830 5829 5827 5826 5824 5822 5820 5818 5817 5814 5812 5810 5808 5807 5805 5804 5802 5799 5797 5796 5794 5792 5790 5789 5787
5797 5803 5808 5811 5814 5817 5820 5823 5825 5828 5830 5831 5831 5832 5831 5830 5830 5830 5829 5828 5828 5827 5826 5824 5823 5821 5820 5819 5817 5815 5813 5811 5809 5807 5805 5804 5802 5801 5799 5797 5795 5793 5790 5789 5787 5785 5783 5782 5779
5796 5800 5804 5807 5810 5813 5816 5819 5821 5823 5825 5826 5826 5826 5826 5825 5824 5824 5823 5822 5821 5821 5820 5818 5817 5815 5814 5812 5810 5808 5805 5803 5801 5800 5798 5796 5795 5793 5792 5790 5788 5786 5784 5782 5780 5777 5775 5774 5771
5791 5794 5798 5801 5805 5808 5811 5814 5816 5819 5820 5820 5820 5820 5820 5819 5819 5818 5817 5816 5815 5814 5813 5812 5810 5808 5806 5804 5802 5800 5797 5796 5794 5792 5791 5789 5787 5786 5784 5782 5780 5778 5776 5774 5772 5769 5766 5764 5762
5786 5789 5794 5797 5800 5803 5806 5808 5811 5813 5813 5814 5814 5813 5813 5812 5811 5811 5810 5809 5808 5806 5805 5804 5802 5800 5798 5795 5793 5791 5789 5788 5786 5785 5784 5782 5780 5778 5776 5773 5771 5769 5766 5763 5761 5759 5756 5753 5751
5782 5785 5789 5792 5794 5798 5800 5803 5806 5807 5807 5807 5807 5806 5806 5805 5805 5803 5802 5801 5800 5799 5798 5796 5794 5791 5789 5786 5784 5783 5781 5780 5778 5777 5775 5773 5770 5768 5765 5763 5760 5757 5754 5752 5749 5747 5744 5741 5738
5777 5780 5783 5786 5789 5792 5794 5797 5798 5799 5800 5800 5799 5799 5799 5798 5797 5796 5794 5793 5792 5790 5789 5787 5784 5781 5779 5777 5776 5774 5773 5771 5769 5767 5764 5762 5759 5757 5754 5751 5749 5746 5743 5740 5737 5734 5731 5728 5725
5771 5774 5778 5780 5783 5785 5788 5787 5792 5792 5792 5792 5792 5792 5791 5790 5789 5788 5786 5785 5783 5781 5779 5776 5774 5772 5770 5768 5766 5765 5763 5761 5759 5757 5754 5751 5748 5745 5742 5739 5736 5732 5729 5725 5722 5718 5715 5713 5710
5765 5768 5770 5773 5775 5776 5780 5781 5782 5785 5785 5785 5784 5783 5782 5781 5780 5778 5776 5775 5773 5771 5769 5767 5765 5763 5761 5759 5758 5756 5754 5752 5749 5746 5742 5739 5735 5732 5729 5725 5721 5717 5712 5708 5705 5701 5697 5695 5692
5759 5762 5764 5766 5767 5769 5773 5774 5775 5775 5777 5777 5776 5775 5774 5772 5770 5768 5766 5764 5762 5760 5759 5757 5756 5754 5752 5750 5748 5746 5743 5740 5736 5732 5729 5725 5721 5717 5713 5708 5703 5699 5695 5690 5686 5682 5678 5675 5672
5752 5755 5757 5757 5760 5763 5765 5765 5768 5768 5768 5768 5767 5766 5765 5762 5760 5758 5757 5755 5753 5752 5750 5748 5746 5744 5742 5739 5736 5733 5730 5726 5722 5719 5715 5711 5707 5701 5696 5691 5686 5681 5676 5672 5667 5664 5659 5655 5651
5746 5748 5751 5752 5753 5754 5756 5758 5760 5759 5759 5758 5757 5757 5755 5753 5751 5749 5748 5746 5744 5742 5740 5738 5735 5733 5730 5727 5724 5720 5716 5712 5708 5704 5700 5695 5689 5683 5678 5672 5667 5661 5656 5650 5647 5642 5638 5633 5629
5738 5742 5743 5743 5744 5745 5746 5748 5749 5750 5749 5749 5748 5746 5744 5743 5741 5740 5738 5736 5734 5732 5729 5727 5724 5721 5718 5714 5710 5706 5702 5698 5693 5688 5682 5676 5670 5664 5657 5651 5645 5638 5632 5626 5622 5618 5612 5607 5602
5731 5732 5734 5736 5736 5736 5737 5739 5738 5739 5739 5739 5737 5735 5734 5732 5731 5729 5727 5725 5723 5721 5718 5715 5712 5708 5704 5700 5696 5691 5686 5681 5676 5670 5664 5658 5652 5645 5639 5633 5627 5620 5612 5604 5596 5590 5584 5577 5572
5721 5723 5725 5726 5729 5728 5726 5728 5727 5729 5730 5728 5726 5724 5723 5722 5720 5718 5716 5713 5711 5708 5705 5702 5698 5694 5690 5685 5680 5675 5669 5664 5659 5653 5646 5639 5632 5624 5617 5609 5602 5593 5584 5575 5564 5556 5550 5545 5541